[[{"header":{"parameterUnit":"m.s-1","parameterCategory":1,"la1":30.2992,"la2":30.254,"lo1":-89.0895,"lo2":-89.0443,"dy":0.0025,"dx":0.0025,"nx":19,"ny":19,"refTime":"2026-05-02T21:00:00:Z","depth":0,"parameterNumber":2,"parameterNumberName":"U-component_of_WINDS"},"data":[0,0,0,0.3813,0.3814,0.3828,0.3828,0.3843,0.3843,0,0,0,0,0,0,0,0,0,0,0,0.3808,0.3808,0.3813,0.3814,0.3828,0.3828,0.3843,0.3843,0,0,0,0,0,0,0,0,0,0,0,0.3808,0.3808,0.3808,0.3814,0.3828,0.3828,0.3843,0.3833,0,0,0,0,0,0,0,0,0,0,0.382,0.3814,0.3808,0.3808,0.3814,0.3828,0.3828,0.3833,0.3834,0.3835,0,0.3837,0,0.384,0.3844,0.3844,0,0,0,0.3815,0.3813,0.3818,0.3808,0.3814,0.3828,0.3822,0.3834,0.3835,0.3837,0.3837,0.3838,0.3841,0.3844,0.3844,0.385,0.385,0,0,0.3814,0.381,0.3817,0.3818,0.3817,0.3822,0.3822,0.3834,0.3834,0.3837,0.3838,0.3841,0.3844,0.3844,0.385,0.385,0,0,0,0.3811,0.3809,0.3814,0.3818,0.3821,0.3822,0.3823,0.3834,0.3836,0.3838,0.3841,0.3844,0.3845,0.385,0.385,0.3845,0,0,0,0.381,0.3807,0.3814,0.3811,0.382,0.3828,0.3822,0.3835,0.3836,0.3841,0.3844,0.3845,0.385,0.385,0.3845,0.3843,0,0,0,0.3807,0.3807,0.3809,0.3811,0.3817,0.3828,0.383,0.3835,0.3838,0.3844,0.3845,0.385,0.385,0.3845,0.3843,0.3843,0,0,0,0.3803,0.3805,0.3809,0.3812,0.3817,0.3825,0.383,0.3836,0.3841,0.3845,0.385,0.385,0.3845,0.3844,0.3843,0.3841,0.384,0,0,0.3803,0.3805,0.3807,0.3811,0.3816,0.3823,0.3827,0.3836,0.384,0.3846,0.3846,0.3845,0.3843,0.3843,0.3836,0.3835,0,0,0,0.3805,0.3807,0.3809,0.3813,0.3819,0.3824,0.3832,0.3835,0.384,0.3843,0.3845,0.3844,0.3843,0.3843,0.3842,0.3842,0.3849,0.3849,0.3849,0.38,0.3805,0.3808,0.3814,0.3818,0.3825,0.3828,0.3833,0.3838,0.3838,0.384,0.3835,0.3834,0.3834,0.3833,0.3839,0.3839,0.3839,0.3839,0.3801,0.3803,0.3807,0.3812,0.3816,0.382,0.3826,0.3828,0.3832,0.3835,0.3835,0.3837,0.3833,0.3832,0.3839,0.3839,0.3839,0.3839,0.3839,0.3798,0.38,0.3803,0.3808,0.3811,0.3817,0.3819,0.3823,0.3827,0.3827,0.3828,0.3829,0.3829,0.3827,0.3827,0.3827,0.3827,0.3827,0.3827,0.3794,0.3797,0.3799,0.3804,0.3806,0.381,0.3815,0.3817,0.382,0.3823,0.3823,0.3826,0.3832,0.3833,0.3827,0.3827,0.3827,0.3827,0.3827,0.3793,0.3793,0.3796,0.3798,0.3803,0.3805,0.381,0.3813,0.3815,0.3816,0.3818,0.3822,0.3824,0.3824,0.3825,0.3818,0.3818,0.3818,0.3818,0.379,0.3791,0.3794,0.3797,0.38,0.3803,0.3805,0.3808,0.3812,0.3813,0.3814,0.3816,0.3816,0.3818,0.3819,0.3819,0.3811,0.3811,0.3811,0.3789,0.379,0.3791,0.3795,0.3799,0.3801,0.3802,0.3804,0.3808,0.3811,0.3814,0.3814,0.3816,0.3817,0.382,0.3821,0.3823,0,0]},{"header":{"parameterUnit":"m.s-1","parameterCategory":1,"la1":30.2992,"la2":30.254,"lo1":-89.0895,"lo2":-89.0443,"dy":0.0025,"dx":0.0025,"nx":19,"ny":19,"refTime":"2026-05-02T21:00:00:Z","depth":0,"parameterNumber":3,"parameterNumberName":"V-component_of_WINDS"},"data":[0,0,0,4.2377,4.2376,4.2368,4.2368,4.2353,4.2353,0,0,0,0,0,0,0,0,0,0,0,4.2378,4.2377,4.2377,4.2376,4.2368,4.2368,4.2353,4.2353,0,0,0,0,0,0,0,0,0,0,0,4.2378,4.2377,4.2377,4.2376,4.2368,4.2368,4.2353,4.2361,0,0,0,0,0,0,0,0,0,0,4.2369,4.2369,4.2377,4.2377,4.2376,4.2368,4.2368,4.2361,4.236,4.2355,0,4.2352,0,4.2352,4.2352,4.2351,0,0,0,4.2377,4.237,4.2369,4.2377,4.2376,4.2368,4.2372,4.236,4.2359,4.2354,4.2351,4.2351,4.2352,4.2351,4.2351,4.2323,4.2323,0,0,4.2378,4.2375,4.237,4.2368,4.2371,4.2372,4.2372,4.236,4.2356,4.2351,4.2351,4.2351,4.2351,4.2351,4.2324,4.2323,0,0,0,4.2378,4.2375,4.2375,4.2369,4.2368,4.2372,4.2371,4.2357,4.2357,4.235,4.2351,4.2351,4.2351,4.2324,4.2324,4.2313,0,0,0,4.2379,4.2376,4.2375,4.2373,4.2368,4.2362,4.2368,4.2358,4.2357,4.2351,4.2351,4.2351,4.2324,4.2324,4.2314,4.2308,0,0,0,4.2379,4.2376,4.2374,4.2373,4.237,4.2363,4.2362,4.2358,4.2357,4.2351,4.2351,4.2324,4.2324,4.2314,4.2309,4.23,0,0,0,4.2377,4.2364,4.2374,4.236,4.237,4.2357,4.2362,4.2353,4.2346,4.2351,4.2324,4.2324,4.2314,4.231,4.23,4.2291,4.2287,0,0,4.2359,4.2362,4.2354,4.2362,4.2347,4.2358,4.2341,4.2337,4.2339,4.2328,4.2328,4.2313,4.2309,4.23,4.2267,4.2264,0,0,0,4.2347,4.2341,4.2338,4.2332,4.233,4.2327,4.2327,4.2326,4.2317,4.2333,4.2308,4.2305,4.23,4.2295,4.2293,4.2288,4.2322,4.2322,4.2322,4.2317,4.232,4.2307,4.2309,4.2304,4.2304,4.23,4.2298,4.2302,4.2296,4.2293,4.2272,4.2267,4.2265,4.226,4.2289,4.2289,4.2288,4.2288,4.229,4.2282,4.2289,4.2278,4.2282,4.2272,4.2272,4.2275,4.2266,4.2275,4.2271,4.2279,4.2262,4.2258,4.2288,4.2288,4.2288,4.2288,4.2288,4.227,4.2267,4.2266,4.2259,4.2253,4.2256,4.2247,4.2251,4.2253,4.2249,4.2245,4.2246,4.2246,4.2247,4.2247,4.2247,4.2247,4.2247,4.2247,4.2249,4.2249,4.2242,4.2239,4.2236,4.2233,4.2233,4.223,4.2227,4.223,4.223,4.2234,4.226,4.2266,4.2246,4.2246,4.2246,4.2246,4.2246,4.2219,4.2227,4.2216,4.2213,4.221,4.2203,4.2208,4.2202,4.22,4.2195,4.2201,4.222,4.2222,4.2224,4.2229,4.2201,4.2201,4.2201,4.2201,4.2202,4.2204,4.2194,4.2189,4.2185,4.2188,4.2175,4.2175,4.2176,4.2175,4.2179,4.2186,4.2189,4.219,4.2193,4.2197,4.2161,4.2161,4.2161,4.2184,4.2186,4.2174,4.2176,4.2174,4.2172,4.2159,4.2152,4.2155,4.216,4.2173,4.2175,4.2187,4.219,4.2194,4.2199,4.2207,0,0]}]]